Date,TemperatureHighF,TemperatureAvgF,TemperatureLowF,DewpointHighF,DewpointAvgF,DewpointLowF,HumidityHigh,HumidityAvg,HumidityLow,PressureMaxIn,PressureMinIn,WindSpeedMaxMPH,WindSpeedAvgMPH,GustSpeedMaxMPH,PrecipitationSumIn
2013-6-1,88.7,74.5,61.5,71.9,65.2,59.8,95,75,44,30.03,29.87,3,1,15,0.04
2013-6-2,81.0,69.7,62.4,67.5,63.8,61.0,98,83,61,29.89,29.82,6,2,18,0.06
2013-6-3,77.1,65.7,57.0,66.5,60.2,53.4,100,84,55,30.02,29.85,5,1,11,0.02
2013-6-4,56.8,50.8,47.4,53.3,49.0,46.0,98,94,88,30.13,30.02,3,1,6,0.00
2013-6-5,79.2,64.3,47.2,61.2,54.9,46.1,97,74,51,30.17,30.00,4,1,10,0.00
2013-6-6,65.8,63.0,61.7,63.0,60.7,58.7,99,92,83,30.01,29.84,2,0,9,0.68
2013-6-7,69.1,64.5,61.7,67.3,63.4,58.8,100,96,87,29.84,29.68,4,1,13,0.07
2013-6-8,80.9,66.7,57.5,64.5,58.6,54.7,94,77,43,30.11,29.81,5,1,14,0.00
2013-6-9,78.2,67.1,56.4,68.0,62.5,55.5,99,86,68,30.18,30.06,4,1,9,0.00
2013-6-10,75.3,67.6,60.7,72.4,66.1,59.9,100,95,77,30.08,29.79,6,0,16,0.55
2013-6-11,76.1,70.0,61.2,66.2,62.2,59.6,99,77,64,29.90,29.81,7,3,20,0.01
2013-6-12,86.0,76.1,64.5,69.9,65.8,61.9,92,72,47,29.90,29.78,4,1,15,0.00
2013-6-13,77.4,66.7,62.0,70.0,62.9,55.3,100,88,71,29.81,29.53,8,3,22,1.29
2013-6-14,75.5,65.8,58.6,59.8,55.3,52.2,85,70,50,30.04,29.71,6,3,24,0.00
2013-6-15,81.0,66.3,51.3,60.4,54.2,47.2,100,70,31,30.12,30.01,4,1,10,0.00
2013-6-16,78.5,67.5,59.4,65.2,60.3,55.8,92,79,60,30.06,29.90,10,2,28,0.00
2013-6-17,86.1,75.0,66.6,68.1,64.3,60.9,90,70,46,29.96,29.87,5,2,15,0.00
2013-6-18,73.6,67.4,62.6,68.9,64.5,61.3,98,91,72,29.92,29.82,3,1,9,0.13
2013-6-19,76.0,65.6,60.9,64.4,61.5,60.0,99,87,60,30.14,29.91,5,1,10,0.00
2013-6-20,83.1,69.5,57.2,68.3,62.8,56.6,100,82,48,30.23,30.14,2,0,10,0.21
2013-6-21,84.5,70.5,58.9,70.2,64.3,58.6,100,83,50,30.26,30.17,3,0,8,0.00
2013-6-22,87.1,72.7,60.0,71.1,64.8,59.1,99,78,48,30.22,30.09,4,0,8,0.00
2013-6-23,87.2,71.7,59.6,71.5,65.1,59.0,100,82,47,30.18,30.06,4,0,13,0.09
2013-6-24,86.1,72.5,61.7,74.1,67.8,61.4,100,86,57,30.15,30.03,3,0,11,0.05
2013-6-25,90.2,76.3,64.2,72.3,66.6,62.3,100,76,42,30.07,29.90,2,0,13,0.01
2013-6-26,83.1,72.6,65.6,71.2,67.4,64.1,96,85,60,29.92,29.83,4,0,16,0.03
2013-6-27,78.6,71.0,62.4,72.1,67.1,62.1,100,88,72,29.84,29.66,4,1,8,0.35
2013-6-28,82.6,71.8,62.1,70.3,65.4,60.9,97,81,58,29.63,29.51,5,1,24,0.20
2013-6-29,84.0,70.6,59.6,66.0,61.7,58.5,98,76,45,29.70,29.54,5,0,14,0.01
2013-6-30,84.4,70.0,60.0,71.6,65.0,59.0,99,86,55,29.84,29.70,4,0,12,1.07